• Join FlightAware (Why Join?)
  • Login
  • US Flag 
12:01AM EDT


 

Airport Tracker/Info


-or-


 

Live Flight TrackerFlight Track Log ✈ JIA2373 ✈ 22-Apr-2012 ✈ KFAY - KCLT

Flight Track Log - Related Links

Times and Time Zones

All times are in EDT time to prevent confusion due to time zone crossing. See the JIA2373 flight status page for this flight to view local times or setup timezone preferences in your user account.

Time Position Orientation Groundspeed Altitude Reporting Facility
EDT Latitude Longitude Course Direction KTS MPH feet Rate Location/Type
11:40AM 34.9941 -78.9049 95° East  Level FlightAware Approximate
11:41AM 34.9207 -78.9459 56° Northeast  Level FlightAware Approximate
11:42AM 34.9878 -78.8244 212° Southwest 119 137 3,900  Level Washington Center
11:43AM 34.9344 -78.8653 223° Southwest 180 207 5,600 2,340 Climbing Washington Center
11:44AM 34.8719 -78.9361 225° Southwest 241 277 8,600 2,160 Climbing Washington Center
11:45AM 34.8181 -79.0022 222° Southwest 289 333 10,000 1,860 Climbing Washington Center
11:46AM 34.6903 -79.1406 223° Southwest 344 396 13,800 1,440 Climbing Jacksonville Center
11:47AM 34.6297 -79.2089 222° Southwest 344 396 14,000 60 Climbing Jacksonville Center
11:48AM 34.5608 -79.2847 224° Southwest 339 390 14,000  Level Jacksonville Center
11:49AM 34.4883 -79.3711 215° Southwest 325 374 14,000  Level Jacksonville Center
11:50AM 34.4189 -79.4292 199° South 333 383 14,000  Level Jacksonville Center
11:51AM 34.3242 -79.4681 236° Southwest 353 406 14,000  Level Jacksonville Center
11:52AM 34.2683 -79.5683 260° West 347 399 14,000  Level Jacksonville Center
11:53AM 34.2525 -79.6819 307° West 323 372 14,000  Level Jacksonville Center
11:54AM 34.3156 -79.7828 310° West 313 360 14,000  Level Jacksonville Center
11:55AM 34.3803 -79.8761 310° West 335 386 14,000  Level Jacksonville Center
11:56AM 34.4450 -79.9694 309° West 349 402 14,000  Level Jacksonville Center
11:57AM 34.5100 -80.0681 310° West 365 420 14,000 60 Level Jacksonville Center
11:58AM 34.5522 -80.1292 308° West 382 440 14,100 -360 Climbing FAA TRACON SMA TRACON (SMA)
11:59AM 34.5914 -80.1900 309° West 371 427 13,600 -1,320 Descending FAA TRACON SMA TRACON (SMA)
11:59AM 34.6328 -80.2519 314° West 343 395 12,400 -1,500 Descending FAA TRACON SMA TRACON (SMA)
12:00PM 34.6736 -80.3036 313° West 309 356 11,600 -1,080 Descending FAA TRACON SMA TRACON (SMA)
12:01PM 34.7119 -80.3528 312° West 291 335 11,000 -480 Descending FAA TRACON SMA TRACON (SMA)
12:01PM 34.7447 -80.3975 295° West 288 331 11,000 -120 Level FAA TRACON SMA TRACON (SMA)
12:02PM 34.7653 -80.4506 277° West 243 280 10,900 -960 Descending FAA TRACON SMA TRACON (SMA)
12:03PM 34.7703 -80.4981 262° West 237 273 9,800 -1,680 Descending FAA TRACON SMA TRACON (SMA)
12:03PM 34.7644 -80.5481 261° West 243 280 8,700 -1,380 Descending FAA TRACON SMA TRACON (SMA)
12:04PM 34.7567 -80.6050 260° West 245 282 8,000 -540 Descending FAA TRACON SMA TRACON (SMA)
12:05PM 34.7481 -80.6647 260° West 232 267 8,000  Level FAA TRACON SMA TRACON (SMA)
12:05PM 34.7417 -80.7092 259° West 214 246 8,000  Level FAA TRACON SMA TRACON (SMA)
12:06PM 34.7342 -80.7578 260° West 213 245 8,000  Level FAA TRACON SMA TRACON (SMA)
12:07PM 34.7272 -80.8061 261° West 211 243 8,000  Level FAA TRACON SMA TRACON (SMA)
12:07PM 34.7217 -80.8503 270° West 205 236 8,000  Level FAA TRACON SMA TRACON (SMA)
12:08PM 34.7219 -80.8947 335° Northwest 202 232 8,000  Level FAA TRACON SMA TRACON (SMA)
12:09PM 34.7531 -80.9122 357° North 206 237 8,000  Level FAA TRACON SMA TRACON (SMA)
12:09PM 34.7936 -80.9150 355° North 207 238 8,000  Level FAA TRACON SMA TRACON (SMA)
12:10PM 34.8256 -80.9183 355° North 194 223 8,000 -360 Level FAA TRACON SMA TRACON (SMA)
12:11PM 34.8589 -80.9222 357° North 192 221 7,600 -900 Descending FAA TRACON SMA TRACON (SMA)
12:11PM 34.8956 -80.9247 355° North 190 219 6,800 -1,140 Descending FAA TRACON SMA TRACON (SMA)
12:12PM 34.9294 -80.9281 356° North 180 207 6,100 -1,020 Descending FAA TRACON SMA TRACON (SMA)
12:13PM 34.9650 -80.9311 356° North 183 211 5,400 -1,020 Descending FAA TRACON SMA TRACON (SMA)
12:13PM 34.9969 -80.9339 356° North 185 213 4,800 -1,020 Descending FAA TRACON SMA TRACON (SMA)
12:14PM 35.0328 -80.9369 356° North 185 213 4,100 -1,080 Descending FAA TRACON SMA TRACON (SMA)